[[{"header":{"parameterUnit":"m.s-1","parameterCategory":1,"la1":30.2991,"la2":30.254,"lo1":-89.0895,"lo2":-89.0444,"dy":0.0017,"dx":0.0017,"nx":28,"ny":28,"refTime":"2023-07-27T21:00:00:Z","depth":0,"parameterNumber":2,"parameterNumberName":"U-component_of_WINDS"},"data":[0,0,0,0,0,0,0,0,0,0,0,0,0,0,0,0,0,0,0,0,0,0,0,0,0,0,0,0,0,0,0,0,0,0,0,0,0,0,0,0,0,0,0,0,0,0,0,0,0,0,0,0,0,0,0,0,0,0,0.0763,0.0764,0,0.0808,0.0809,0.0809,0.0831,0.0831,0.0831,0.0831,0.0876,0.0878,0.0879,0,0,0,0,0,0,0,0,0,0,0,0,0,0.0695,0.0697,0.0763,0.0764,0.0764,0.0808,0.0809,0.0809,0.0831,0.0831,0.0831,0.0831,0.0876,0.0877,0.0879,0,0,0,0,0,0,0,0,0,0,0,0,0,0.0731,0.0697,0.0763,0.078,0.0782,0.0808,0.0809,0.0809,0.0831,0.0831,0.0831,0.083,0.0876,0.0877,0.0879,0.0891,0,0,0.0885,0.0886,0,0,0,0,0,0,0,0,0.0729,0.0733,0.0777,0.0779,0.0781,0.0814,0.0802,0.0837,0.0831,0.0812,0.0831,0.083,0.0856,0.0859,0.0868,0.0893,0.0895,0.0885,0.0886,0.0887,0.0887,0,0,0,0,0,0,0,0.0726,0.0732,0.0781,0.0778,0.078,0.0785,0.0791,0.0808,0.0834,0.0814,0.0816,0.0821,0.0857,0.0866,0.0869,0.0896,0.0885,0.0887,0.0888,0.0888,0.0933,0.0933,0,0,0,0,0,0,0.0721,0.0729,0.078,0.0782,0.0755,0.0787,0.0792,0.0803,0.0833,0.0838,0.082,0.0821,0.0863,0.0867,0.087,0.0886,0.0887,0.0889,0.089,0.0933,0.0933,0.0933,0,0,0,0,0,0,0.072,0.0726,0.0778,0.0756,0.0763,0.0788,0.08,0.0804,0.0813,0.0838,0.0843,0.0825,0.0863,0.0868,0.0886,0.0888,0.0889,0.0891,0.0933,0.0933,0.0933,0.0918,0,0,0,0,0,0,0.0718,0.0725,0.073,0.0756,0.0765,0.0793,0.08,0.0805,0.0817,0.0818,0.0844,0.0848,0.0863,0.0883,0.0888,0.0891,0.0893,0.0933,0.0933,0.0933,0.0919,0.0918,0.0917,0,0,0,0,0,0.0715,0.0724,0.073,0.0736,0.0771,0.0793,0.0797,0.0814,0.0817,0.0822,0.0838,0.0847,0.0887,0.0884,0.089,0.0894,0.0933,0.0933,0.0933,0.0919,0.0918,0.0917,0,0,0,0,0,0,0.0698,0.0728,0.0735,0.0753,0.077,0.0796,0.0804,0.0813,0.083,0.0831,0.0851,0.0856,0.0872,0.0885,0.0881,0.0907,0.0911,0.0912,0.0898,0.0897,0.0897,0.0894,0.0894,0,0,0,0,0,0.0696,0.0711,0.0736,0.075,0.0758,0.0779,0.0789,0.08,0.0819,0.0826,0.0844,0.0861,0.0878,0.0888,0.0905,0.092,0.0926,0.0925,0.0925,0.0924,0.0925,0.0934,0.0934,0.0934,0.0934,0.0934,0,0,0.0693,0.0711,0.0719,0.0747,0.0761,0.0776,0.0785,0.0801,0.0812,0.0829,0.0847,0.086,0.0881,0.0897,0.0905,0.0908,0.0926,0.0924,0.0923,0.0925,0.0934,0.0934,0.0934,0.0934,0.0934,0.0934,0,0,0.0694,0.071,0.0722,0.0736,0.0758,0.0772,0.0775,0.08,0.0809,0.0827,0.084,0.0853,0.0881,0.0895,0.0906,0.0911,0.0921,0.0916,0.0912,0.092,0.092,0.0921,0.0922,0.0923,0.0917,0.0917,0.0917,0,0.0688,0.0711,0.0728,0.0742,0.0753,0.0769,0.0782,0.0795,0.0821,0.0828,0.083,0.0865,0.088,0.09,0.0901,0.091,0.0913,0.0914,0.0919,0.0919,0.092,0.0922,0.0922,0.0916,0.0916,0.0916,0.0916,0,0.0701,0.0716,0.0724,0.0748,0.076,0.0774,0.0793,0.0803,0.0812,0.0826,0.0844,0.0862,0.0882,0.0888,0.0898,0.0909,0.091,0.0915,0.092,0.0919,0.0921,0.0922,0.0915,0.0915,0.0915,0.0916,0,0,0.0694,0.0727,0.073,0.0741,0.0765,0.0777,0.0791,0.081,0.0819,0.0835,0.0847,0.087,0.0875,0.0887,0.0898,0.0906,0.0908,0.091,0.0911,0.091,0.0921,0.0917,0.0918,0.0914,0.0914,0.0914,0.092,0,0.07,0.0725,0.074,0.076,0.0774,0.0788,0.08,0.0816,0.0828,0.0842,0.0855,0.0871,0.0876,0.0884,0.0891,0.0906,0.0911,0.0906,0.0925,0.0926,0.092,0.0919,0.0915,0.092,0.0921,0.0921,0.0921,0,0.071,0.0726,0.0747,0.0769,0.0775,0.0786,0.0804,0.0817,0.0835,0.0843,0.0856,0.0868,0.0882,0.0884,0.0904,0.0901,0.0909,0.0918,0.0918,0.0921,0.0924,0.0923,0.0921,0.0922,0.0922,0.0922,0.0922,0,0.0703,0.073,0.0746,0.0755,0.0781,0.0788,0.0799,0.0817,0.0827,0.0843,0.085,0.0867,0.0877,0.089,0.0905,0.0906,0.0924,0.0928,0.0931,0.0931,0.0935,0.0935,0.0935,0.0939,0.0939,0.0939,0.0939,0,0.0708,0.072,0.0743,0.0753,0.0766,0.0783,0.0796,0.0808,0.0824,0.0836,0.0849,0.086,0.0879,0.0892,0.0904,0.0919,0.0923,0.093,0.0933,0.0929,0.0928,0.0936,0.0936,0.094,0.0939,0.0939,0.0939,0,0.0703,0.0719,0.0737,0.076,0.0766,0.0775,0.0794,0.0804,0.0816,0.0831,0.0836,0.0855,0.0871,0.0888,0.0909,0.0917,0.0932,0.0936,0.0926,0.0927,0.093,0.093,0.0936,0.0938,0.094,0.094,0.094,0,0.0706,0.0715,0.0739,0.0748,0.0758,0.0773,0.0783,0.0799,0.081,0.083,0.0837,0.0854,0.0869,0.0893,0.0909,0.0926,0.093,0.0931,0.0933,0.0929,0.0931,0.093,0.0931,0.0931,0.0931,0.0931,0.0931,0,0.0708,0.0715,0.073,0.0747,0.0759,0.0773,0.0788,0.0795,0.0813,0.0824,0.0841,0.0852,0.0873,0.089,0.0908,0.0919,0.0928,0.093,0.0932,0.0928,0.0922,0.0926,0.0924,0.093,0.093,0.093,0.093,0.093,0.0708,0.0717,0.0734,0.075,0.0762,0.0776,0.0786,0.0799,0.0813,0.0832,0.084,0.0856,0.0873,0.0898,0.0909,0.0922,0.0924,0.0927,0.0928,0.0928,0.0927,0.0919,0.0925,0.0925,0.0925,0.0925,0.0925,0,0.0711,0.0723,0.0737,0.0757,0.0769,0.0776,0.0792,0.0802,0.0816,0.0831,0.0844,0.0863,0.0878,0.0895,0.0911,0.0918,0.0923,0.0922,0.0922,0.0925,0.0924,0.0921,0.0918,0.0918,0.0918,0.0918,0.0918,0.0918,0.0715,0.073,0.0739,0.076,0.0772,0.0788,0.0797,0.0808,0.082,0.084,0.0853,0.0864,0.0879,0.0897,0.0911,0.0915,0.0921,0.0919,0.0925,0.0924,0.0925,0.0925,0.0923,0.092,0.092,0.0925,0.0925,0.0925]},{"header":{"parameterUnit":"m.s-1","parameterCategory":1,"la1":30.2991,"la2":30.254,"lo1":-89.0895,"lo2":-89.0444,"dy":0.0017,"dx":0.0017,"nx":28,"ny":28,"refTime":"2023-07-27T21:00:00:Z","depth":0,"parameterNumber":3,"parameterNumberName":"V-component_of_WINDS"},"data":[0,0,0,0,0,0,0,0,0,0,0,0,0,0,0,0,0,0,0,0,0,0,0,0,0,0,0,0,0,0,0,0,0,0,0,0,0,0,0,0,0,0,0,0,0,0,0,0,0,0,0,0,0,0,0,0,0,0,-0.2608,-0.2607,0,-0.2517,-0.2516,-0.2515,-0.2448,-0.2447,-0.2447,-0.2446,-0.235,-0.2348,-0.2346,0,0,0,0,0,0,0,0,0,0,0,0,0,-0.2724,-0.2722,-0.2608,-0.2607,-0.2606,-0.2517,-0.2516,-0.2514,-0.2448,-0.2447,-0.2447,-0.2446,-0.2351,-0.2349,-0.2346,0,0,0,0,0,0,0,0,0,0,0,0,0,-0.2657,-0.2722,-0.2609,-0.2562,-0.2557,-0.2517,-0.2516,-0.2514,-0.2448,-0.2447,-0.2447,-0.2446,-0.2352,-0.2349,-0.2346,-0.2344,0,0,-0.2336,-0.2335,0,0,0,0,0,0,0,0,-0.2661,-0.2653,-0.257,-0.2566,-0.256,-0.2493,-0.2521,-0.2457,-0.2448,-0.249,-0.2446,-0.2445,-0.2398,-0.2391,-0.2376,-0.2339,-0.2335,-0.2336,-0.2334,-0.2333,-0.2332,0,0,0,0,0,0,0,-0.2666,-0.2657,-0.2572,-0.2569,-0.2563,-0.2546,-0.2535,-0.2509,-0.245,-0.2486,-0.2481,-0.2471,-0.2395,-0.2379,-0.2373,-0.2334,-0.2336,-0.2333,-0.2332,-0.233,-0.229,-0.2291,0,0,0,0,0,0,-0.2678,-0.2661,-0.2575,-0.2569,-0.261,-0.2544,-0.2533,-0.2515,-0.245,-0.2439,-0.2472,-0.2468,-0.2385,-0.2377,-0.237,-0.2363,-0.2333,-0.233,-0.2328,-0.229,-0.229,-0.2291,0,0,0,0,0,0,-0.2681,-0.2671,-0.2579,-0.2614,-0.2601,-0.2543,-0.2524,-0.2514,-0.2498,-0.2439,-0.2428,-0.2466,-0.2384,-0.2374,-0.2351,-0.2358,-0.2329,-0.2326,-0.2289,-0.229,-0.2291,-0.2349,0,0,0,0,0,0,-0.2685,-0.2672,-0.2671,-0.2614,-0.2599,-0.2562,-0.2525,-0.2513,-0.2493,-0.2487,-0.2431,-0.2421,-0.2382,-0.2356,-0.2348,-0.2354,-0.2324,-0.2288,-0.2289,-0.2291,-0.2346,-0.2352,-0.2357,0,0,0,0,0,-0.2689,-0.2691,-0.2672,-0.2662,-0.2597,-0.2563,-0.2554,-0.251,-0.2494,-0.2492,-0.2454,-0.2423,-0.2359,-0.2354,-0.2344,-0.2349,-0.2287,-0.2289,-0.229,-0.2344,-0.2351,-0.2357,0,0,0,0,0,0,-0.2749,-0.2683,-0.2661,-0.2644,-0.261,-0.2552,-0.2548,-0.2519,-0.2488,-0.2484,-0.243,-0.2418,-0.2401,-0.2372,-0.2368,-0.2344,-0.2319,-0.2319,-0.2363,-0.2369,-0.2374,-0.2381,-0.2321,0,0,0,0,0,-0.2761,-0.274,-0.2682,-0.2673,-0.2657,-0.2606,-0.2589,-0.2559,-0.252,-0.2505,-0.2466,-0.243,-0.2401,-0.2384,-0.2354,-0.2342,-0.2329,-0.2341,-0.2346,-0.2351,-0.2351,-0.2343,-0.2347,-0.2297,-0.2297,-0.2297,0,0,-0.2784,-0.2745,-0.2735,-0.2685,-0.2654,-0.2633,-0.2594,-0.2573,-0.2556,-0.2502,-0.2478,-0.2448,-0.2403,-0.2386,-0.2376,-0.2362,-0.2363,-0.2353,-0.2358,-0.2355,-0.2345,-0.235,-0.2354,-0.2298,-0.2298,-0.2298,0,0,-0.2816,-0.2785,-0.2774,-0.2745,-0.27,-0.2666,-0.2663,-0.2609,-0.2588,-0.2563,-0.2522,-0.2501,-0.2454,-0.2424,-0.2402,-0.2424,-0.2393,-0.2416,-0.2444,-0.2436,-0.244,-0.2443,-0.2451,-0.2454,-0.2417,-0.2417,-0.2417,0,-0.2851,-0.2817,-0.2772,-0.2753,-0.2732,-0.2683,-0.2672,-0.2645,-0.2593,-0.2579,-0.2565,-0.2504,-0.2471,-0.2446,-0.2451,-0.2435,-0.2431,-0.2422,-0.2444,-0.2446,-0.2449,-0.2455,-0.2458,-0.242,-0.2419,-0.2419,-0.2419,0,-0.2862,-0.2839,-0.2836,-0.2788,-0.2766,-0.2751,-0.2703,-0.2687,-0.2659,-0.2626,-0.2602,-0.256,-0.2522,-0.2514,-0.2485,-0.2484,-0.2477,-0.2454,-0.2427,-0.2457,-0.2462,-0.2464,-0.2424,-0.2423,-0.2422,-0.2421,0,0,-0.2928,-0.2856,-0.2855,-0.2833,-0.278,-0.2761,-0.2744,-0.2708,-0.2695,-0.266,-0.2644,-0.2606,-0.2584,-0.256,-0.2528,-0.2521,-0.2541,-0.2498,-0.2496,-0.2507,-0.2537,-0.2554,-0.2558,-0.2521,-0.2521,-0.2521,-0.254,0,-0.2951,-0.2918,-0.2878,-0.2859,-0.2837,-0.2791,-0.2776,-0.2742,-0.2711,-0.2688,-0.2654,-0.2627,-0.2601,-0.2586,-0.2577,-0.254,-0.2546,-0.2538,-0.2504,-0.2504,-0.2516,-0.2561,-0.2579,-0.2599,-0.2542,-0.2543,-0.2543,0,-0.2973,-0.2943,-0.2922,-0.2872,-0.2861,-0.2848,-0.2812,-0.279,-0.2751,-0.2729,-0.2703,-0.2668,-0.2648,-0.2625,-0.2595,-0.2591,-0.2575,-0.2555,-0.2554,-0.2549,-0.2525,-0.2556,-0.2605,-0.2608,-0.2545,-0.2545,-0.2545,0,-0.3023,-0.2977,-0.2958,-0.2941,-0.2881,-0.2874,-0.2848,-0.2808,-0.2789,-0.2757,-0.2743,-0.2709,-0.269,-0.2664,-0.2621,-0.2609,-0.2596,-0.257,-0.2577,-0.2578,-0.2576,-0.2576,-0.2622,-0.2566,-0.2566,-0.2566,-0.2566,0,-0.3053,-0.3042,-0.298,-0.2969,-0.2955,-0.2908,-0.2896,-0.2866,-0.2831,-0.2812,-0.277,-0.2754,-0.2699,-0.2676,-0.2642,-0.2623,-0.2614,-0.2596,-0.2587,-0.2599,-0.2601,-0.2587,-0.2584,-0.2567,-0.2567,-0.2567,-0.2567,0,-0.3106,-0.3064,-0.3041,-0.2987,-0.2974,-0.2966,-0.292,-0.2907,-0.2874,-0.2852,-0.2843,-0.2792,-0.2763,-0.2718,-0.2675,-0.2653,-0.2638,-0.2624,-0.2652,-0.2647,-0.2656,-0.2656,-0.2693,-0.2696,-0.264,-0.2641,-0.2641,0,-0.3127,-0.3118,-0.3064,-0.3049,-0.3026,-0.3002,-0.2983,-0.2937,-0.2918,-0.2872,-0.2865,-0.2833,-0.2804,-0.276,-0.2718,-0.2685,-0.2669,-0.2685,-0.2664,-0.2677,-0.2669,-0.267,-0.2668,-0.269,-0.269,-0.2691,-0.2692,0,-0.3169,-0.3149,-0.3123,-0.3091,-0.3069,-0.304,-0.301,-0.3,-0.2947,-0.2928,-0.2898,-0.2876,-0.2833,-0.2802,-0.2763,-0.2736,-0.2705,-0.2699,-0.2699,-0.2711,-0.2727,-0.2718,-0.2665,-0.2698,-0.2697,-0.2697,-0.2696,-0.2696,-0.3206,-0.3196,-0.3157,-0.3129,-0.3102,-0.3075,-0.306,-0.3026,-0.3001,-0.2963,-0.2937,-0.2909,-0.2869,-0.2815,-0.279,-0.2766,-0.2753,-0.2752,-0.2752,-0.2753,-0.2757,-0.2732,-0.2759,-0.2759,-0.2759,-0.2758,-0.2758,0,-0.3246,-0.3219,-0.3194,-0.3154,-0.3132,-0.3106,-0.3071,-0.3054,-0.3031,-0.2997,-0.297,-0.2936,-0.2906,-0.2862,-0.2828,-0.2818,-0.2803,-0.281,-0.281,-0.2805,-0.2771,-0.2775,-0.2823,-0.2823,-0.2823,-0.2823,-0.2823,-0.2823,-0.3264,-0.3245,-0.3221,-0.3188,-0.3161,-0.3134,-0.3116,-0.309,-0.3063,-0.3028,-0.3002,-0.2975,-0.2937,-0.29,-0.2871,-0.2858,-0.2848,-0.286,-0.2843,-0.2813,-0.2807,-0.2801,-0.2804,-0.2858,-0.2858,-0.2878,-0.2878,-0.2879]}]]